AAL1625 KLAX-KPHX

Flight info

Callsign AAL1625
Flight time 0h 54m
Altitude 31000
Route DOTSS2 CNERY BLH HYDRR1
Aircraft A321/M-SDE3FGHIRWY/LB1

Departure

Time 2026-04-24 14:31
Airport Los Angeles International Airport (KLAX)

Arrival

Time 2026-04-24 15:25
Airport Phoenix Sky Harbor International Airport (KPHX)
Time Latitude Longitude Altitude Speed Heading
2026-04-24 14:05 33.94077 -118.40606 92 ft 0 kts 250°
2026-04-24 14:19 33.94084 -118.40587 93 ft 4 kts 234°
2026-04-24 14:19 33.94102 -118.40568 92 ft 4 kts 190°
2026-04-24 14:19 33.94117 -118.40567 93 ft 0 kts 173°
2026-04-24 14:23 33.94116 -118.40567 93 ft 1 kts 173°
2026-04-24 14:23 33.94097 -118.40564 93 ft 5 kts 173°
2026-04-24 14:24 33.94054 -118.40558 95 ft 7 kts 172°
2026-04-24 14:24 33.94000 -118.40549 95 ft 9 kts 172°
2026-04-24 14:24 33.93918 -118.40537 95 ft 13 kts 173°
2026-04-24 14:24 33.93845 -118.40524 94 ft 6 kts 163°
2026-04-24 14:25 33.93828 -118.40476 99 ft 9 kts 83°
2026-04-24 14:25 33.93837 -118.40397 97 ft 10 kts 83°
2026-04-24 14:25 33.93846 -118.40311 96 ft 11 kts 82°
2026-04-24 14:25 33.93856 -118.40220 96 ft 11 kts 82°
2026-04-24 14:26 33.93865 -118.40124 97 ft 13 kts 85°
2026-04-24 14:26 33.93879 -118.40009 96 ft 15 kts 80°
2026-04-24 14:26 33.93891 -118.39880 96 ft 16 kts 84°
2026-04-24 14:26 33.93904 -118.39744 95 ft 17 kts 83°
2026-04-24 14:27 33.93920 -118.39590 95 ft 21 kts 82°
2026-04-24 14:27 33.93940 -118.39401 96 ft 23 kts 83°
2026-04-24 14:27 33.93960 -118.39209 94 ft 23 kts 83°
2026-04-24 14:27 33.93979 -118.39021 94 ft 22 kts 83°
2026-04-24 14:28 33.93997 -118.38836 94 ft 22 kts 84°
2026-04-24 14:28 33.94016 -118.38655 96 ft 21 kts 82°
2026-04-24 14:28 33.94034 -118.38479 96 ft 21 kts 84°
2026-04-24 14:28 33.94052 -118.38307 96 ft 21 kts 83°
2026-04-24 14:29 33.94069 -118.38134 94 ft 20 kts 83°
2026-04-24 14:29 33.94068 -118.38023 96 ft 11 kts 122°
2026-04-24 14:29 33.93995 -118.38008 95 ft 12 kts 212°
2026-04-24 14:29 33.93979 -118.38078 94 ft 0 kts 261°
2026-04-24 14:30 33.93979 -118.38079 94 ft 1 kts 261°
2026-04-24 14:30 33.93974 -118.38119 94 ft 20 kts 263°
2026-04-24 14:30 33.93927 -118.38588 100 ft 91 kts 263°
2026-04-24 14:30 33.93822 -118.39601 100 ft 150 kts 263°
2026-04-24 14:31 33.93674 -118.41025 202 ft 185 kts 263°
2026-04-24 14:31 33.93518 -118.42480 1006 ft 171 kts 262°
2026-04-24 14:31 33.93367 -118.43913 1643 ft 171 kts 261°
2026-04-24 14:31 33.93176 -118.45338 2076 ft 178 kts 250°
2026-04-24 14:32 33.92594 -118.46731 2239 ft 197 kts 231°
2026-04-24 14:32 33.91687 -118.48103 2400 ft 222 kts 230°
2026-04-24 14:32 33.90672 -118.49636 2656 ft 245 kts 229°
2026-04-24 14:32 33.89551 -118.51265 3126 ft 258 kts 229°
2026-04-24 14:33 33.88388 -118.52925 3821 ft 261 kts 230°
2026-04-24 14:33 33.87119 -118.54503 4523 ft 264 kts 217°
2026-04-24 14:33 33.85488 -118.55508 5164 ft 270 kts 197°
2026-04-24 14:33 33.83586 -118.55765 5848 ft 275 kts 176°
2026-04-24 14:34 33.81718 -118.55331 6515 ft 279 kts 168°
2026-04-24 14:34 33.79822 -118.54810 7149 ft 282 kts 169°
2026-04-24 14:34 33.77897 -118.54288 7801 ft 285 kts 169°
2026-04-24 14:34 33.75954 -118.53762 8465 ft 288 kts 170°
2026-04-24 14:35 33.73984 -118.53230 9154 ft 291 kts 170°
2026-04-24 14:35 33.72024 -118.52546 9834 ft 298 kts 158°
2026-04-24 14:35 33.70268 -118.51176 10436 ft 305 kts 139°
2026-04-24 14:35 33.68898 -118.49139 10685 ft 328 kts 120°
2026-04-24 14:36 33.68033 -118.46508 10824 ft 350 kts 110°
2026-04-24 14:36 33.67219 -118.43683 11070 ft 365 kts 110°
2026-04-24 14:36 33.66371 -118.40778 11592 ft 371 kts 111°
2026-04-24 14:36 33.65506 -118.37838 12151 ft 376 kts 111°
2026-04-24 14:37 33.64749 -118.34813 12664 ft 382 kts 103°
2026-04-24 14:37 33.64450 -118.31445 13252 ft 388 kts 91°
2026-04-24 14:37 33.64454 -118.29293 13609 ft 391 kts 91°
2026-04-24 14:37 33.64464 -118.26009 14115 ft 395 kts 91°
2026-04-24 14:38 33.64472 -118.22701 14613 ft 399 kts 91°
2026-04-24 14:38 33.64477 -118.19362 15107 ft 402 kts 91°
2026-04-24 14:38 33.64477 -118.15987 15599 ft 406 kts 91°
2026-04-24 14:38 33.64473 -118.12590 16097 ft 410 kts 91°
2026-04-24 14:39 33.64465 -118.09149 16595 ft 414 kts 91°
2026-04-24 14:39 33.64459 -118.05680 17092 ft 417 kts 91°
2026-04-24 14:39 33.64455 -118.02180 17592 ft 421 kts 91°
2026-04-24 14:39 33.64452 -117.98649 18077 ft 425 kts 91°
2026-04-24 14:40 33.64447 -117.95096 18517 ft 428 kts 91°
2026-04-24 14:40 33.64440 -117.91506 18912 ft 432 kts 91°
2026-04-24 14:40 33.64431 -117.87888 19318 ft 436 kts 91°
2026-04-24 14:40 33.64422 -117.84234 19735 ft 439 kts 91°
2026-04-24 14:41 33.64323 -117.80558 20147 ft 442 kts 98°
2026-04-24 14:41 33.63786 -117.76983 20566 ft 442 kts 108°
2026-04-24 14:41 33.63391 -117.75346 20772 ft 443 kts 109°
2026-04-24 14:41 33.62509 -117.71795 21183 ft 446 kts 109°
2026-04-24 14:42 33.61609 -117.68163 21610 ft 450 kts 110°
2026-04-24 14:42 33.60725 -117.64599 22013 ft 453 kts 110°
2026-04-24 14:42 33.59827 -117.60959 22407 ft 456 kts 110°
2026-04-24 14:42 33.58914 -117.57252 22815 ft 459 kts 110°
2026-04-24 14:43 33.58006 -117.53566 23201 ft 462 kts 110°
2026-04-24 14:43 33.57092 -117.49852 23600 ft 465 kts 110°
2026-04-24 14:43 33.56182 -117.46172 23897 ft 468 kts 110°
2026-04-24 14:43 33.55252 -117.42422 24237 ft 470 kts 110°
2026-04-24 14:44 33.54312 -117.38651 24561 ft 472 kts 110°
2026-04-24 14:44 33.53364 -117.34858 24879 ft 475 kts 110°
2026-04-24 14:44 33.52416 -117.31066 25178 ft 477 kts 110°
2026-04-24 14:44 33.51460 -117.27241 25472 ft 480 kts 109°
2026-04-24 14:45 33.50698 -117.23338 25749 ft 485 kts 101°
2026-04-24 14:45 33.50422 -117.19297 26035 ft 489 kts 92°
2026-04-24 14:45 33.50380 -117.15212 26315 ft 491 kts 92°
2026-04-24 14:45 33.50332 -117.11109 26608 ft 494 kts 92°
2026-04-24 14:46 33.50278 -117.06991 26898 ft 496 kts 92°
2026-04-24 14:46 33.50216 -117.02846 27191 ft 498 kts 92°
2026-04-24 14:46 33.50148 -116.98696 27472 ft 500 kts 92°
2026-04-24 14:46 33.50082 -116.94523 27752 ft 502 kts 92°
2026-04-24 14:47 33.50021 -116.90328 28027 ft 504 kts 92°
2026-04-24 14:47 33.49963 -116.86122 28278 ft 507 kts 92°
2026-04-24 14:47 33.49903 -116.81893 28518 ft 509 kts 92°
2026-04-24 14:47 33.49840 -116.77636 28776 ft 511 kts 92°
2026-04-24 14:48 33.49773 -116.73366 29022 ft 514 kts 92°
2026-04-24 14:48 33.49698 -116.69080 29272 ft 516 kts 92°
2026-04-24 14:48 33.49620 -116.64776 29541 ft 518 kts 92°
2026-04-24 14:48 33.49543 -116.60457 29783 ft 520 kts 92°
2026-04-24 14:49 33.49467 -116.56116 30057 ft 521 kts 92°
2026-04-24 14:49 33.49391 -116.51779 30351 ft 521 kts 92°
2026-04-24 14:49 33.49313 -116.47445 30657 ft 520 kts 92°
2026-04-24 14:49 33.49233 -116.43102 30886 ft 521 kts 92°
2026-04-24 14:50 33.49155 -116.38859 30938 ft 511 kts 92°
2026-04-24 14:50 33.49028 -116.30426 30917 ft 504 kts 92°
2026-04-24 14:51 33.48914 -116.22008 30910 ft 503 kts 92°
2026-04-24 14:51 33.48789 -116.13622 30912 ft 503 kts 92°
2026-04-24 14:52 33.48821 -116.05237 30918 ft 504 kts 84°
2026-04-24 14:52 33.50441 -115.97120 30928 ft 502 kts 69°
2026-04-24 14:53 33.52751 -115.89276 30928 ft 503 kts 69°
2026-04-24 14:53 33.55069 -115.81367 30913 ft 503 kts 69°
2026-04-24 14:54 33.57381 -115.73439 30909 ft 503 kts 69°
2026-04-24 14:54 33.59681 -115.65509 30910 ft 504 kts 69°
2026-04-24 14:55 33.61601 -115.58850 30913 ft 504 kts 69°
2026-04-24 14:55 33.62497 -115.53409 30907 ft 504 kts 90°
2026-04-24 14:55 33.62409 -115.49202 30909 ft 504 kts 93°
2026-04-24 14:56 33.62115 -115.40796 30909 ft 505 kts 94°
2026-04-24 14:56 33.61788 -115.32378 30909 ft 505 kts 94°
2026-04-24 14:57 33.61474 -115.23926 30890 ft 507 kts 93°
2026-04-24 14:57 33.61165 -115.15476 30890 ft 506 kts 93°
2026-04-24 14:58 33.60845 -115.07049 30894 ft 506 kts 94°
2026-04-24 14:58 33.60504 -114.98607 30881 ft 507 kts 94°
2026-04-24 14:59 33.60176 -114.90149 30912 ft 509 kts 94°
2026-04-24 14:59 33.59846 -114.81719 30926 ft 509 kts 94°
2026-04-24 15:00 33.59073 -114.73313 30922 ft 505 kts 106°
2026-04-24 15:00 33.57450 -114.65117 30902 ft 505 kts 106°
2026-04-24 15:00 33.56659 -114.61051 30647 ft 496 kts 105°
2026-04-24 15:01 33.55889 -114.57055 30412 ft 487 kts 105°
2026-04-24 15:01 33.55137 -114.53137 30167 ft 479 kts 105°
2026-04-24 15:01 33.54388 -114.49260 29915 ft 474 kts 105°
2026-04-24 15:01 33.53643 -114.45435 29632 ft 471 kts 105°
2026-04-24 15:02 33.52897 -114.41635 29214 ft 467 kts 105°
2026-04-24 15:02 33.52151 -114.37857 28703 ft 465 kts 105°
2026-04-24 15:02 33.51407 -114.34093 28198 ft 463 kts 105°
2026-04-24 15:02 33.50668 -114.30347 27697 ft 461 kts 105°
2026-04-24 15:03 33.49932 -114.26619 27241 ft 459 kts 105°
2026-04-24 15:03 33.49200 -114.22904 26771 ft 457 kts 105°
2026-04-24 15:03 33.48467 -114.19193 26306 ft 456 kts 105°
2026-04-24 15:03 33.47738 -114.15511 25845 ft 454 kts 106°
2026-04-24 15:04 33.47007 -114.11841 25373 ft 454 kts 106°
2026-04-24 15:04 33.46272 -114.08162 24901 ft 453 kts 106°
2026-04-24 15:04 33.45545 -114.04515 24663 ft 445 kts 106°
2026-04-24 15:04 33.44833 -114.00943 24476 ft 437 kts 106°
2026-04-24 15:05 33.44129 -113.97423 24234 ft 430 kts 106°
2026-04-24 15:05 33.43435 -113.93968 24166 ft 427 kts 106°
2026-04-24 15:05 33.42736 -113.90513 24065 ft 427 kts 106°
2026-04-24 15:05 33.42038 -113.87063 23909 ft 426 kts 106°
2026-04-24 15:06 33.41344 -113.83622 23743 ft 424 kts 106°
2026-04-24 15:06 33.40655 -113.80194 23589 ft 423 kts 106°
2026-04-24 15:06 33.39970 -113.76771 23410 ft 422 kts 106°
2026-04-24 15:06 33.39286 -113.73364 23251 ft 421 kts 106°
2026-04-24 15:07 33.38598 -113.69960 23080 ft 420 kts 106°
2026-04-24 15:07 33.37908 -113.66570 22928 ft 419 kts 106°
2026-04-24 15:07 33.37217 -113.63192 22764 ft 417 kts 106°
2026-04-24 15:07 33.36533 -113.59837 22588 ft 416 kts 106°
2026-04-24 15:08 33.35847 -113.56467 22428 ft 414 kts 106°
2026-04-24 15:08 33.35167 -113.53128 22264 ft 413 kts 106°
2026-04-24 15:08 33.34486 -113.49798 22108 ft 412 kts 106°
2026-04-24 15:08 33.33805 -113.46472 21934 ft 411 kts 106°
2026-04-24 15:09 33.33148 -113.43135 21450 ft 414 kts 104°
2026-04-24 15:09 33.32552 -113.39780 21075 ft 410 kts 103°
2026-04-24 15:09 33.31995 -113.36432 20585 ft 409 kts 103°
2026-04-24 15:09 33.31454 -113.33114 20229 ft 403 kts 103°
2026-04-24 15:10 33.30915 -113.29845 19555 ft 398 kts 103°
2026-04-24 15:10 33.30378 -113.26671 19002 ft 391 kts 103°
2026-04-24 15:10 33.29827 -113.23471 18536 ft 386 kts 103°
2026-04-24 15:10 33.29308 -113.20339 18046 ft 382 kts 102°
2026-04-24 15:11 33.28845 -113.17231 17636 ft 379 kts 101°
2026-04-24 15:11 33.28409 -113.14124 17189 ft 379 kts 100°
2026-04-24 15:11 33.27988 -113.11046 16730 ft 378 kts 100°
2026-04-24 15:11 33.27569 -113.07912 16266 ft 376 kts 97°
2026-04-24 15:12 33.27490 -113.04846 15888 ft 372 kts 88°
2026-04-24 15:12 33.27665 -112.98654 15043 ft 367 kts 88°
2026-04-24 15:12 33.27734 -112.95657 14505 ft 362 kts 89°
2026-04-24 15:13 33.27802 -112.92678 14084 ft 357 kts 89°
2026-04-24 15:13 33.27869 -112.89728 13655 ft 353 kts 89°
2026-04-24 15:13 33.27937 -112.86805 13210 ft 351 kts 88°
2026-04-24 15:13 33.28028 -112.83910 12968 ft 344 kts 84°
2026-04-24 15:14 33.28504 -112.81105 12684 ft 337 kts 70°
2026-04-24 15:14 33.29410 -112.78528 12301 ft 334 kts 64°
2026-04-24 15:14 33.30366 -112.76012 11947 ft 331 kts 64°
2026-04-24 15:14 33.31301 -112.73522 11486 ft 323 kts 64°
2026-04-24 15:15 33.32183 -112.71162 11257 ft 309 kts 64°
2026-04-24 15:15 33.33051 -112.68841 11063 ft 303 kts 64°
2026-04-24 15:15 33.33928 -112.66515 10726 ft 302 kts 64°
2026-04-24 15:15 33.34781 -112.64276 10473 ft 299 kts 64°
2026-04-24 15:16 33.35638 -112.62036 10173 ft 297 kts 64°
2026-04-24 15:16 33.36500 -112.59787 9886 ft 295 kts 64°
2026-04-24 15:16 33.37359 -112.57541 9590 ft 293 kts 64°
2026-04-24 15:16 33.38198 -112.55338 9154 ft 289 kts 64°
2026-04-24 15:17 33.39029 -112.53152 8579 ft 290 kts 65°
2026-04-24 15:17 33.39862 -112.50961 8211 ft 283 kts 65°
2026-04-24 15:17 33.40389 -112.49569 8103 ft 274 kts 65°
2026-04-24 15:17 33.41336 -112.46946 7668 ft 266 kts 66°
2026-04-24 15:18 33.42042 -112.44933 7386 ft 261 kts 66°
2026-04-24 15:18 33.42681 -112.42916 7063 ft 258 kts 76°
2026-04-24 15:18 33.42870 -112.40811 6779 ft 253 kts 91°
2026-04-24 15:18 33.42862 -112.39426 6587 ft 250 kts 90°
2026-04-24 15:19 33.42859 -112.37335 6300 ft 245 kts 90°
2026-04-24 15:19 33.42861 -112.35339 6007 ft 241 kts 90°
2026-04-24 15:19 33.42862 -112.33337 5728 ft 239 kts 90°
2026-04-24 15:19 33.42865 -112.31349 5455 ft 238 kts 90°
2026-04-24 15:20 33.42871 -112.29373 5176 ft 236 kts 90°
2026-04-24 15:20 33.43019 -112.27428 4903 ft 234 kts 77°
2026-04-24 15:20 33.43365 -112.25523 4597 ft 234 kts 77°
2026-04-24 15:20 33.43702 -112.23636 4321 ft 228 kts 78°
2026-04-24 15:21 33.43984 -112.21806 4134 ft 216 kts 84°
2026-04-24 15:21 33.44073 -112.20060 3899 ft 205 kts 89°
2026-04-24 15:21 33.44085 -112.18384 3633 ft 197 kts 90°
2026-04-24 15:21 33.44086 -112.16776 3390 ft 190 kts 91°
2026-04-24 15:22 33.44086 -112.15230 3158 ft 180 kts 91°
2026-04-24 15:22 33.44087 -112.13791 2933 ft 169 kts 91°
2026-04-24 15:22 33.44087 -112.12406 2719 ft 163 kts 91°
2026-04-24 15:23 33.44092 -112.09726 2305 ft 160 kts 92°
2026-04-24 15:23 33.44092 -112.07088 1862 ft 157 kts 90°
2026-04-24 15:23 33.44094 -112.05785 1657 ft 156 kts 91°
2026-04-24 15:24 33.44087 -112.01949 1128 ft 143 kts 91°
2026-04-24 15:25 33.44084 -112.00337 1129 ft 53 kts 90°
2026-04-24 15:25 33.44083 -111.99709 1135 ft 23 kts 90°
2026-04-24 15:26 33.44025 -111.99358 1136 ft 13 kts 172°
2026-04-24 15:27 33.43973 -111.99643 1126 ft 14 kts 269°
2026-04-24 15:27 33.43837 -111.99827 1121 ft 11 kts 179°
2026-04-24 15:28 33.43758 -111.99873 1118 ft 0 kts 270°
2026-04-24 15:29 33.43758 -111.99875 1118 ft 0 kts 270°